Regional Weather Roundup
Issued by NWS

Home | Current Version | Previous Version | Graphics & Text | Print | Product List | Glossary On
Versions: 1 2 3 4 5 6 7 8 9 10 11 12 13 14 15 16 17 18 19 20 21 22 23 24 25 26 27 28 29 30 31 32 33 34 35 36 37 38 39 40 41 42 43 44 45 46 47 48 49 50
312
ASUS43 KMPX 250110
RWRMN
WEATHER ROUNDUP FOR MINNESOTA
NATIONAL WEATHER SERVICE TWIN CITIES/CHANHASSEN MN
800 PM CDT SUN SEP 24 2017


NOTE: "FAIR" INDICATES FEW OR NO CLOUDS BELOW 12,000 FEET WITH NO
SIGNIFICANT WEATHER AND/OR OBSTRUCTIONS TO VISIBILITY. N/A MEANS
CURRENT SKY AND/OR WEATHER CONDITIONS ARE NOT AVAILABLE.

MNZ060>063-068>070-250200-
   Twin Cities Metro

CITY           SKY/WX    TMP DP  RH WIND       PRES   REMARKS
TWIN CITIES    MOCLDY    77  66  68 W10       29.89R
ST PAUL        CLOUDY    77  66  68 W13       29.88R
CRYSTAL        CLOUDY    71  65  81 W3        29.87S
BLAINE         MOCLDY    73  72  94 W8        29.88R
LAKEVILLE      CLOUDY    75  64  69 W7        29.90R
EDEN PRAIRIE   MOCLDY    73  66  78 W8        29.89R
SOUTH ST PAUL  MOCLDY    80  63  55 W14       29.88R
LAKE ELMO      FAIR      79  63  57 S8        29.87S
$$
MNZ001>005-007-008-013>017-022>024-027-028-250200-
   Northwest Minnesota

CITY           SKY/WX    TMP DP  RH WIND       PRES   REMARKS
BEMIDJI        CLOUDY    57  56  94 W12       29.87R
HALLOCK        CLOUDY    50  48  93 NW14      29.93R
ROSEAU           N/A     52  46  82 NW8       29.87R
THIEF RVR FALL CLOUDY    51  50  96 NW12      29.92R
CROOKSTON      CLOUDY    50  50 100 NW15      29.95R
FOSSTON        CLOUDY    52  50  93 W9        29.91R FOG
DETROIT LAKES  CLOUDY    52  52 100 NW9       29.93R
MOORHEAD       CLOUDY    52  50  93 NW14      29.95R
PARK RAPIDS    MOCLDY    58  55  90 W8        29.89R
MAHNOMEN       CLOUDY    52  51  97 NW9       29.92R FOG
$$
MNZ006-009>011-018-025>026-250200-
   North Central Minnesota

CITY           SKY/WX    TMP DP  RH WIND       PRES   REMARKS
BAUDETTE       CLOUDY    55  55 100 NW13      29.84R
FLAG ISLAND    MOCLDY    54  52  94 NW17      29.82F
INTL FALLS     CLOUDY    66  64  93 W15       29.81R
WASKISH        CLOUDY    61  57  88 W10       29.85R
BIG FORK       CLOUDY    70  66  88 SW6       29.84R FOG
LONGVILLE      CLOUDY    66  64  94 W7G16     29.86R
GRAND RAPIDS   CLOUDY    67  65  93 S8        29.88R
CRANE LAKE     CLOUDY    64  63  94 CALM      29.82S
ORR            PTCLDY    66  63  88 CALM      29.80R
WALKER         FAIR      60  57  91 W5        29.86S
$$
MNZ012-019>021-037-250200-
   Northeast Minnesota

CITY           SKY/WX    TMP DP  RH WIND       PRES   REMARKS
DULUTH         TSTM      68  65  90 W17       29.92R
ELY            LGT RAIN  66  64  94 SW6       29.85R
HIBBING        LGT RAIN  65  65 100 VRB3      29.86R
EVELETH        LGT RAIN  65  65  99 S3        29.87R
DULUTH HARBOR  PTCLDY    64  63  94 E7        29.83F
SILVER BAY     MOCLDY    66  64  94 CALM      29.85
GRAND MARAIS     N/A     65  63  93 NE6       29.85S
G MARAIS ARPRT CLEAR     68  61  77 S6        29.90
$$
MNZ029>031-032-039>041-046>048-054>057-064-250200-
   West Central Minnesota

CITY           SKY/WX    TMP DP  RH WIND       PRES   REMARKS
FERGUS FALLS   CLOUDY    54  54 100 NW12G18   29.95R
WHEATON        CLOUDY    55  50  82 NW10      29.97R
MORRIS         CLOUDY    57  55  94 NW14      29.94
ALEXANDRIA     CLOUDY    58  56  93 W8        29.91F
ELBOW LAKE     CLOUDY    54  53  97 W14       29.95R
WADENA         CLOUDY    57  57 100 W3        29.89S
GLENWOOD       CLOUDY    59  57  94 W8        29.92R
APPLETON       MOCLDY    61  54  77 NW10      29.95R
BENSON         CLOUDY    61  55  82 N14       29.95R
ORTONVILLE     CLOUDY    55  52  88 NW10G16   29.96R
MADISON        CLOUDY    63  55  77 NW14      29.95R
WILLMAR        FAIR      64  61  88 W6        29.93R
$$
MNZ033>034-036-042>043-049>051-058-059-250200-
   Central Minnesota

CITY           SKY/WX    TMP DP  RH WIND       PRES   REMARKS
ST CLOUD       CLOUDY    68  68 100 W6        29.87F
SAUK CENTRE    CLOUDY    63  61  93 W8        29.91R
PAYNESVILLE    CLOUDY    66  63  91 NW9       29.91R
AITKIN         CLOUDY    66  64  94 SW3       29.86R
PINE RIVER     CLOUDY    61  57  88 W3        29.90S
BRAINERD       MOCLDY    67  66  97 SW3       29.87R
STAPLES        MOCLDY    61  57  88 W7        29.89S
LITTLE FALLS   MOCLDY    66  64  94 CALM      29.88R
LITCHFIELD     PTCLDY    70  68  94 W8        29.89S
BUFFALO        CLOUDY    68  64  88 CALM      29.89S
MAPLE LAKE     CLOUDY    68  67  94 CALM      29.90R
HUTCHINSON     CLOUDY    68  67  96 CALM      29.91R
$$
MNZ037-044-045-052-053-250200-
   East Central Minnesota

CITY           SKY/WX    TMP DP  RH WIND       PRES   REMARKS
PRINCETON      CLOUDY    70  66  88 CALM      29.88F
MORA           RAIN      66  61  82 SW7       29.90R
CAMBRIDGE      RAIN      70  64  83 S3        29.90
RUSH CITY      CLOUDY    69  66  89 SW12G24   29.91R
MOOSE LAKE     LGT RAIN  68  63  83 SW6       29.86S
HINCKLEY       CLOUDY    72  68  88 W9G18     29.89R
CLOQUET        LGT RAIN  66  63  88 W10G25    29.87R
MCGREGOR       CLOUDY    64  63  94 SW3       29.86F
$$
MNZ071>073-080-081-089-090-097-098-250200-
   Southwest Minnesota

CITY           SKY/WX    TMP DP  RH WIND       PRES   REMARKS
MONTEVIDEO     DRIZZLE   63  59  88 N7        29.93R
GRANITE FALLS  CLOUDY    64  60  85 W6        29.94R
CANBY          CLOUDY    60  56  84 W8        29.97R
MARSHALL       CLOUDY    61  58  90 NW10      29.93F
REDWOOD FALLS  MOCLDY    66  60  81 W10       29.92R
OLIVIA         MOCLDY    63  59  88 NW8       29.91R
PIPESTONE      LGT RAIN  59  55  88 NW8       29.95S
WORTHINGTON    MOCLDY    65  61  87 NW6       29.94S
JACKSON        CLOUDY    68  64  88 CALM      29.94R
TRACY          DRIZZLE   64  60  87 CALM      29.94R
SLAYTON        CLOUDY    63  53  70 SW6       29.96R
$$
MNZ065>067-074>077-082>085-091>093-250200-
   South Central Minnesota

CITY           SKY/WX    TMP DP  RH WIND       PRES   REMARKS
MANKATO        MOCLDY    71  64  78 W3        29.89F
NEW ULM        PTCLDY    68  64  88 W5        29.91S
ST JAMES       LGT RAIN  72  66  83 W5        29.91S
FAIRMONT       PTCLDY    70  66  87 CALM      29.91F
GLENCOE        MOCLDY    70  70 100 CALM      29.90
FARIBAULT      MOCLDY    77  64  65 W12G20    29.91R
OWATONNA       PTCLDY    79  63  57 S5        29.90R
WASECA         CLOUDY    77  64  65 NW3       29.91R
ALBERT LEA     PTCLDY    82  63  51 S7        29.90S
$$
MNZ078>079-086>088-094>096-250200-
   Southeast Minnesota

CITY           SKY/WX    TMP DP  RH WIND       PRES   REMARKS
ROCHESTER      CLEAR     75  63  66 S7        29.92S
RED WING       CLOUDY    82  61  47 SE5       29.86S
STANTON        CLOUDY    79  62  56 S8        29.86S
DODGE CENTER   CLEAR     72  61  68 S3        29.92R
WINONA         CLEAR     79  63  57 S5        29.91S
AUSTIN         CLEAR     79  61  53 S5        29.91S
PRESTON        CLEAR     77  60  57 SE7       29.94S
$$
ABBREVIATIONS USED IN REMARKS
   TC - TEMPERATURES IN CELSIUS
  WCI - WIND CHILL INDEX
   HX - HEAT INDEX
  VSB - VISIBILITY
$$




USA.gov is the U.S. government's official web portal to all federal, state and local government web resources and services.